CCM614V LFML-LFKJ

Flight info

Callsign CCM614V
Flight time 0h 38m
Altitude 21000
Route TINOT Z154 RUBAS
Aircraft A320/M-SDE3FGHIRWY/LB1

Departure

Time 2026-04-29 14:34
Airport Marseille Provence Airport (LFML)

Arrival

Time 2026-04-29 15:13
Airport Ajaccio Napoléon Bonaparte airport (LFKJ)
Time Latitude Longitude Altitude Speed Heading
2026-04-29 14:05 43.44018 5.22160 40 ft 0 kts 33°
2026-04-29 14:20 43.44015 5.22158 40 ft 2 kts 33°
2026-04-29 14:20 43.44001 5.22145 40 ft 2 kts 33°
2026-04-29 14:20 43.43987 5.22132 37 ft 2 kts 33°
2026-04-29 14:20 43.43973 5.22121 36 ft 2 kts 20°
2026-04-29 14:21 43.43956 5.22116 37 ft 2 kts 330°
2026-04-29 14:21 43.43954 5.22117 37 ft 0 kts 319°
2026-04-29 14:21 43.43955 5.22115 37 ft 0 kts 319°
2026-04-29 14:24 43.43955 5.22108 40 ft 1 kts 279°
2026-04-29 14:24 43.43955 5.22104 40 ft 0 kts 276°
2026-04-29 14:25 43.43955 5.22103 40 ft 0 kts 276°
2026-04-29 14:25 43.43958 5.22089 38 ft 4 kts 289°
2026-04-29 14:26 43.43996 5.22026 39 ft 11 kts 309°
2026-04-29 14:26 43.43964 5.21941 38 ft 12 kts 222°
2026-04-29 14:26 43.43900 5.21860 38 ft 13 kts 214°
2026-04-29 14:26 43.43834 5.21908 40 ft 10 kts 135°
2026-04-29 14:27 43.43796 5.21966 41 ft 7 kts 133°
2026-04-29 14:27 43.43764 5.22004 43 ft 7 kts 146°
2026-04-29 14:27 43.43715 5.22047 44 ft 10 kts 148°
2026-04-29 14:28 43.43555 5.22175 49 ft 16 kts 149°
2026-04-29 14:28 43.43460 5.22249 50 ft 15 kts 150°
2026-04-29 14:28 43.43366 5.22298 54 ft 14 kts 165°
2026-04-29 14:28 43.43298 5.22371 55 ft 11 kts 135°
2026-04-29 14:29 43.43254 5.22433 59 ft 7 kts 135°
2026-04-29 14:29 43.43230 5.22466 60 ft 3 kts 135°
2026-04-29 14:29 43.43219 5.22481 58 ft 4 kts 135°
2026-04-29 14:29 43.43192 5.22500 59 ft 1 kts 173°
2026-04-29 14:33 43.43191 5.22500 59 ft 0 kts 175°
2026-04-29 14:33 43.43159 5.22498 62 ft 17 kts 187°
2026-04-29 14:33 43.43088 5.22472 58 ft 11 kts 208°
2026-04-29 14:33 43.43050 5.22395 58 ft 9 kts 291°
2026-04-29 14:34 43.43102 5.22311 63 ft 17 kts 313°
2026-04-29 14:34 43.43365 5.21933 49 ft 100 kts 315°
2026-04-29 14:34 43.44043 5.20963 55 ft 174 kts 310°
2026-04-29 14:34 43.44941 5.19732 693 ft 190 kts 311°
2026-04-29 14:35 43.45872 5.18337 1310 ft 205 kts 310°
2026-04-29 14:35 43.46752 5.16722 1972 ft 215 kts 302°
2026-04-29 14:35 43.47412 5.14869 2752 ft 215 kts 280°
2026-04-29 14:35 43.47321 5.12832 3373 ft 224 kts 241°
2026-04-29 14:36 43.46253 5.11362 3915 ft 221 kts 198°
2026-04-29 14:36 43.44742 5.10871 4481 ft 229 kts 185°
2026-04-29 14:36 43.43170 5.10456 5295 ft 230 kts 188°
2026-04-29 14:36 43.41618 5.09943 6191 ft 229 kts 192°
2026-04-29 14:37 43.40072 5.09364 6976 ft 232 kts 195°
2026-04-29 14:37 43.38517 5.08752 7754 ft 234 kts 196°
2026-04-29 14:37 43.36878 5.08139 8184 ft 256 kts 194°
2026-04-29 14:37 43.35076 5.07511 8631 ft 276 kts 194°
2026-04-29 14:38 43.33189 5.06880 9444 ft 281 kts 194°
2026-04-29 14:38 43.31303 5.06258 10211 ft 288 kts 196°
2026-04-29 14:38 43.29275 5.05587 10474 ft 312 kts 195°
2026-04-29 14:38 43.27086 5.04861 10686 ft 335 kts 197°
2026-04-29 14:39 43.24756 5.04112 11086 ft 350 kts 193°
2026-04-29 14:39 43.22295 5.04142 11734 ft 362 kts 168°
2026-04-29 14:39 43.20010 5.05638 12404 ft 372 kts 143°
2026-04-29 14:39 43.18329 5.08373 13083 ft 381 kts 123°
2026-04-29 14:40 43.17022 5.11562 13741 ft 387 kts 118°
2026-04-29 14:40 43.15839 5.14908 14321 ft 393 kts 116°
2026-04-29 14:40 43.14703 5.18326 14970 ft 395 kts 116°
2026-04-29 14:40 43.13557 5.21772 15597 ft 399 kts 116°
2026-04-29 14:41 43.12356 5.25202 16215 ft 401 kts 121°
2026-04-29 14:41 43.10716 5.28293 16795 ft 403 kts 135°
2026-04-29 14:41 43.08577 5.30751 17379 ft 403 kts 150°
2026-04-29 14:41 43.06073 5.32460 17952 ft 403 kts 163°
2026-04-29 14:42 43.03349 5.33343 18527 ft 404 kts 175°
2026-04-29 14:42 43.00535 5.33484 19014 ft 406 kts 182°
2026-04-29 14:42 42.97705 5.33411 19559 ft 408 kts 184°
2026-04-29 14:42 42.94858 5.33242 20104 ft 410 kts 185°
2026-04-29 14:43 42.92007 5.33024 20675 ft 411 kts 184°
2026-04-29 14:43 42.89152 5.32796 20936 ft 411 kts 184°
2026-04-29 14:43 42.86276 5.32576 21002 ft 420 kts 184°
2026-04-29 14:43 42.83307 5.32361 21001 ft 434 kts 184°
2026-04-29 14:44 42.80276 5.32155 21007 ft 437 kts 184°
2026-04-29 14:44 42.77231 5.32162 20994 ft 439 kts 175°
2026-04-29 14:44 42.74251 5.33107 21005 ft 442 kts 161°
2026-04-29 14:44 42.71518 5.35032 21009 ft 445 kts 146°
2026-04-29 14:45 42.69210 5.37854 21006 ft 449 kts 131°
2026-04-29 14:45 42.67465 5.41371 21005 ft 452 kts 118°
2026-04-29 14:45 42.66319 5.45346 21005 ft 452 kts 110°
2026-04-29 14:45 42.65318 5.49330 20998 ft 451 kts 109°
2026-04-29 14:46 42.64305 5.53364 21005 ft 452 kts 110°
2026-04-29 14:46 42.63288 5.57411 20997 ft 452 kts 109°
2026-04-29 14:46 42.62271 5.61451 21004 ft 452 kts 109°
2026-04-29 14:46 42.61249 5.65492 21009 ft 452 kts 109°
2026-04-29 14:47 42.60225 5.69528 21003 ft 453 kts 110°
2026-04-29 14:47 42.59198 5.73565 20992 ft 453 kts 109°
2026-04-29 14:47 42.58171 5.77600 20997 ft 453 kts 110°
2026-04-29 14:47 42.57490 5.80275 21000 ft 453 kts 110°
2026-04-29 14:48 42.56114 5.85679 20997 ft 453 kts 110°
2026-04-29 14:48 42.55084 5.89719 21002 ft 453 kts 109°
2026-04-29 14:48 42.54053 5.93759 21000 ft 453 kts 110°
2026-04-29 14:48 42.53022 5.97798 20993 ft 454 kts 110°
2026-04-29 14:49 42.51989 6.01838 20996 ft 454 kts 109°
2026-04-29 14:49 42.50955 6.05870 21003 ft 453 kts 110°
2026-04-29 14:49 42.49915 6.09907 20998 ft 453 kts 110°
2026-04-29 14:49 42.48873 6.13939 20991 ft 453 kts 109°
2026-04-29 14:50 42.47832 6.17972 21003 ft 453 kts 110°
2026-04-29 14:50 42.46790 6.22002 20998 ft 453 kts 110°
2026-04-29 14:50 42.45749 6.26029 20991 ft 454 kts 110°
2026-04-29 14:50 42.44704 6.30056 21002 ft 453 kts 110°
2026-04-29 14:51 42.43656 6.34078 21008 ft 453 kts 110°
2026-04-29 14:51 42.42605 6.38099 21005 ft 453 kts 110°
2026-04-29 14:51 42.41570 6.42059 21010 ft 452 kts 110°
2026-04-29 14:51 42.40520 6.46069 21006 ft 452 kts 110°
2026-04-29 14:52 42.39472 6.50075 21013 ft 452 kts 110°
2026-04-29 14:52 42.38424 6.54078 21007 ft 451 kts 110°
2026-04-29 14:52 42.37581 6.58168 21011 ft 452 kts 101°
2026-04-29 14:52 42.37111 6.62366 21017 ft 452 kts 98°
2026-04-29 14:53 42.36676 6.66569 21013 ft 452 kts 98°
2026-04-29 14:53 42.36237 6.70773 21009 ft 451 kts 98°
2026-04-29 14:53 42.35793 6.74973 21008 ft 451 kts 98°
2026-04-29 14:53 42.35346 6.79169 21005 ft 451 kts 98°
2026-04-29 14:54 42.34897 6.83368 20994 ft 451 kts 98°
2026-04-29 14:54 42.34446 6.87564 21002 ft 451 kts 98°
2026-04-29 14:54 42.33994 6.91762 20999 ft 451 kts 99°
2026-04-29 14:54 42.33541 6.95960 20988 ft 451 kts 98°
2026-04-29 14:55 42.33085 7.00156 20995 ft 451 kts 99°
2026-04-29 14:55 42.32627 7.04350 20992 ft 451 kts 98°
2026-04-29 14:55 42.32170 7.08542 20996 ft 451 kts 99°
2026-04-29 14:55 42.31711 7.12738 20988 ft 451 kts 98°
2026-04-29 14:56 42.31252 7.16932 20981 ft 451 kts 99°
2026-04-29 14:56 42.30793 7.21130 20986 ft 451 kts 99°
2026-04-29 14:56 42.30333 7.25322 20992 ft 451 kts 99°
2026-04-29 14:56 42.29869 7.29514 20985 ft 451 kts 99°
2026-04-29 14:57 42.29401 7.33707 20991 ft 451 kts 99°
2026-04-29 14:57 42.28938 7.37853 20718 ft 442 kts 99°
2026-04-29 14:57 42.28481 7.41925 20112 ft 436 kts 99°
2026-04-29 14:57 42.28025 7.45953 19489 ft 432 kts 99°
2026-04-29 14:58 42.27571 7.49939 18860 ft 428 kts 99°
2026-04-29 14:58 42.27119 7.53895 18278 ft 424 kts 98°
2026-04-29 14:58 42.26672 7.57818 17632 ft 421 kts 98°
2026-04-29 14:58 42.26230 7.61711 16984 ft 418 kts 98°
2026-04-29 14:59 42.25794 7.65567 16396 ft 414 kts 98°
2026-04-29 14:59 42.25360 7.69395 15811 ft 411 kts 99°
2026-04-29 14:59 42.24927 7.73194 15234 ft 408 kts 99°
2026-04-29 14:59 42.24495 7.76962 14660 ft 405 kts 99°
2026-04-29 15:00 42.24062 7.80704 14090 ft 402 kts 99°
2026-04-29 15:00 42.23627 7.84418 13488 ft 400 kts 99°
2026-04-29 15:00 42.23197 7.88091 13089 ft 391 kts 99°
2026-04-29 15:00 42.22782 7.91639 12956 ft 375 kts 99°
2026-04-29 15:01 42.22387 7.95043 12825 ft 360 kts 99°
2026-04-29 15:01 42.22009 7.98307 12686 ft 341 kts 99°
2026-04-29 15:01 42.21656 8.01351 12491 ft 319 kts 99°
2026-04-29 15:01 42.21312 8.04269 12087 ft 311 kts 99°
2026-04-29 15:02 42.20977 8.07092 11692 ft 310 kts 99°
2026-04-29 15:02 42.20635 8.09961 11294 ft 310 kts 99°
2026-04-29 15:02 42.20293 8.12825 10903 ft 309 kts 100°
2026-04-29 15:02 42.19951 8.15681 10517 ft 308 kts 100°
2026-04-29 15:03 42.19608 8.18530 10132 ft 307 kts 100°
2026-04-29 15:03 42.19266 8.21368 9738 ft 306 kts 100°
2026-04-29 15:03 42.18929 8.24197 9320 ft 305 kts 100°
2026-04-29 15:03 42.18594 8.27011 8909 ft 303 kts 99°
2026-04-29 15:04 42.18264 8.29787 8665 ft 296 kts 99°
2026-04-29 15:04 42.17940 8.32497 8348 ft 291 kts 99°
2026-04-29 15:04 42.17616 8.35179 7971 ft 289 kts 100°
2026-04-29 15:04 42.17294 8.37838 7612 ft 286 kts 100°
2026-04-29 15:05 42.16974 8.40469 7241 ft 284 kts 100°
2026-04-29 15:05 42.16764 8.42204 6994 ft 282 kts 100°
2026-04-29 15:05 42.16340 8.45681 6493 ft 279 kts 101°
2026-04-29 15:05 42.15751 8.48148 6105 ft 276 kts 117°
2026-04-29 15:06 42.14697 8.50277 5705 ft 272 kts 133°
2026-04-29 15:06 42.13300 8.51983 5297 ft 270 kts 141°
2026-04-29 15:06 42.11858 8.53594 4888 ft 269 kts 141°
2026-04-29 15:06 42.10428 8.55202 4478 ft 267 kts 141°
2026-04-29 15:07 42.09004 8.56809 4055 ft 266 kts 140°
2026-04-29 15:07 42.07584 8.58408 3640 ft 265 kts 140°
2026-04-29 15:07 42.06174 8.59989 3229 ft 263 kts 140°
2026-04-29 15:07 42.04768 8.61565 2805 ft 262 kts 140°
2026-04-29 15:08 42.03418 8.63076 2675 ft 250 kts 140°
2026-04-29 15:08 42.02104 8.64554 2394 ft 244 kts 137°
2026-04-29 15:08 42.01057 8.66320 2074 ft 240 kts 116°
2026-04-29 15:08 42.00538 8.68395 1963 ft 227 kts 97°
2026-04-29 15:09 42.00291 8.70351 2079 ft 197 kts 98°
2026-04-29 15:09 42.00052 8.72109 1877 ft 187 kts 102°
2026-04-29 15:09 41.99844 8.73738 1878 ft 164 kts 103°
2026-04-29 15:09 41.99713 8.74713 1851 ft 155 kts 107°
2026-04-29 15:10 41.99505 8.76140 1834 ft 152 kts 103°
2026-04-29 15:10 41.99288 8.77502 1726 ft 150 kts 108°
2026-04-29 15:10 41.99079 8.78869 1683 ft 149 kts 103°
2026-04-29 15:10 41.98852 8.80249 1619 ft 152 kts 108°
2026-04-29 15:11 41.98385 8.81460 1323 ft 144 kts 140°
2026-04-29 15:11 41.97501 8.81952 1039 ft 137 kts 175°
2026-04-29 15:11 41.96548 8.82108 881 ft 138 kts 178°
2026-04-29 15:11 41.95585 8.82101 754 ft 140 kts 191°
2026-04-29 15:12 41.94698 8.81671 560 ft 134 kts 212°
2026-04-29 15:12 41.93839 8.81157 322 ft 134 kts 205°
2026-04-29 15:12 41.93003 8.80634 85 ft 130 kts 206°
2026-04-29 15:12 41.92220 8.80129 23 ft 112 kts 206°
2026-04-29 15:13 41.91669 8.79792 23 ft 62 kts 205°
2026-04-29 15:13 41.91397 8.79621 24 ft 23 kts 204°
2026-04-29 15:13 41.91276 8.79538 22 ft 18 kts 224°
2026-04-29 15:13 41.91271 8.79417 22 ft 14 kts 329°
2026-04-29 15:14 41.91280 8.79411 21 ft 0 kts 331°
2026-04-29 15:14 41.91294 8.79401 21 ft 5 kts 332°
2026-04-29 15:14 41.91324 8.79380 21 ft 5 kts 332°
2026-04-29 15:14 41.91359 8.79356 23 ft 10 kts 335°
2026-04-29 15:15 41.91459 8.79337 21 ft 20 kts
2026-04-29 15:15 41.91616 8.79430 22 ft 27 kts 24°
2026-04-29 15:15 41.91778 8.79530 21 ft 19 kts 25°
2026-04-29 15:15 41.91896 8.79604 23 ft 13 kts 26°
2026-04-29 15:16 41.91950 8.79576 21 ft 8 kts 322°
2026-04-29 15:16 41.91958 8.79574 21 ft 1 kts 351°
2026-04-29 15:16 41.91959 8.79574 21 ft 0 kts 351°